Location: Newark
(26.7500°S, 133.2500°E)
Time: 07:16:32
(UTC+00:00)

N. Korean satellite - Visible Passes

Search period start: 16 December 2019 00:00
Search period end: 26 December 2019 00:00
Orbit: 455 x 507 km, 97.2° (Epoch: 15 December)

Date Brightness Start Highest point End Pass type
(mag) Time Alt. Az. Time Alt. Az. Time Alt. Az.
17 Dec 9.6 19:39:47 10° ENE 19:42:18 19° ESE 19:44:51 10° SSE visible
21 Dec 9.8 19:31:54 10° ENE 19:33:56 15° ESE 19:36:00 10° SE visible
25 Dec 10.2 19:24:19 10° E 19:25:34 12° ESE 19:26:52 10° SE visible
